Weather in Aralsk

Kazakhstan     46˚48′02″N   61˚39′22″E
temp.,
°C
wind,
m/s
gust,
m/s
humid.,
%
clouds,
%
prec.,
mm/h
press.,
hPa
HPBL,
m
28 november, sat
sat2823:00−3˚nw469392 0.2 1027129
02:00−3˚nw58922 0.0 1029203
05:00−4˚nw58925 0.0 1031206
08:00−5˚nw589221 0.0 1035179
11:00−3˚wnw687811 0.0 1038417
14:00−1˚nw57720 0.0 1040508
17:00−3˚nw33820 0.0 104241
20:00−5˚nnw34830 0.0 104357
29 november, sun
sun2923:00−6˚nne34850 0.0 104469
02:00−7˚ne23850 0.0 104544
05:00−7˚ne33840 0.0 104750
08:00−8˚ne34850 0.0 104792
11:00−6˚ne45760 0.0 1049249
14:00−5˚ne45700 0.0 1048339
17:00−6˚ne57800 0.0 1048231
20:00−7˚ne58850 0.0 1048261
30 november, mon
mon3023:00−8˚ne58860 0.0 1048255
02:00−9˚ne610860 0.0 1047282
05:00−10˚ne610850 0.0 1046284
08:00−10˚ne710850 0.0 1046306
11:00−9˚ne710750 0.0 1046343
14:00−8˚ne912680 0.0 1044405
17:00−9˚ne812740 0.0 1043373
20:00−10˚ne913780 0.0 1043370
1 december, tue
tue123:00−10˚ne812800 0.0 1042354
02:00−11˚ne813810 0.0 1041354
05:00−12˚ne812780 0.0 1040361
08:00−12˚ne812780 0.0 1040337
11:00−10˚ne812710 0.0 1040385
14:00−8˚ne811690 0.0 1039459
17:00−10˚ne812760 0.0 1039449
20:00−11˚ne711780 0.0 1039423
2 december, wed
wed223:00−11˚ne610810 0.0 1039393
02:00−12˚ne69820 0.0 1038322
05:00−12˚ne69840 0.0 1038291
08:00−12˚ne69860 0.0 1037266
11:00−10˚ne68770 0.0 1037330
14:00−8˚ne67710 0.0 1036346
17:00−9˚ne69780 0.0 1035320
20:00−10˚ne598411 0.0 1034305